Temperature
28 30 30 31 31 31 31 31 31 31 31 31 31 31 31 30 29 29 28 26 25 23 22 21 21 20 20 21 20 20 20 19 19 18 18 18 18 18 18 17 17 17 17 17
29 29 30 30 30 30 30 31 31 31 31 31 31 31 31 30 29 28 28 26 25 24 22 21 21 20 20 20 20 20 20 19 19 19 18 18 18 17 17 17 17 17 17 17
30 30 29 29 29 29 30 31 31 31 31 31 31 31 31 30 28 28 27 27 26 25 23 22 21 21 20 20 20 20 20 19 19 18 18 18 17 17 17 17 17 17 17 17
29 29 28 29 29 30 30 30 30 30 31 31 31 31 31 31 30 29 28 27 26 25 24 22 21 21 21 20 20 20 20 19 19 19 18 18 17 17 17 17 17 17 17 17
29 28 28 29 30 29 30 30 30 30 30 31 31 31 32 31 30 30 29 28 27 25 24 22 22 21 21 20 20 20 20 19 19 18 18 18 17 17 17 17 17 17 17 17
29 29 29 30 30 30 29 29 30 30 31 30 30 30 31 32 31 31 30 28 26 25 24 22 22 21 21 20 20 19 19 19 19 18 18 18 17 17 17 17 17 17 17 17
27 28 29 29 29 29 29 30 29 29 29 30 30 30 31 31 31 30 29 28 26 25 24 22 22 21 20 20 20 19 19 19 19 18 18 18 17 17 17 17 17 17 17 17
27 28 29 29 30 29 29 30 29 29 29 30 29 30 31 31 30 29 28 27 26 25 24 22 22 21 21 20 20 19 19 19 19 18 18 18 17 17 17 17 17 17 17 17
29 29 29 29 30 30 29 30 32 31 30 30 30 30 31 31 30 29 28 27 26 25 24 23 22 21 21 20 20 19 19 19 19 18 18 18 17 17 17 17 17 17 17 17
29 28 29 29 29 29 30 31 30 30 28 29 29 30 30 30 30 29 28 27 26 25 24 23 22 21 21 20 20 19 19 19 19 18 18 18 17 17 17 17 17 17 17 17
29 28 28 28 28 29 28 29 30 30 30 29 29 30 32 31 30 30 29 27 26 25 24 23 22 21 20 20 20 19 19 19 18 18 18 18 17 17 17 17 17 17 17 17
28 28 28 29 29 30 30 30 29 29 28 29 30 30 31 31 30 29 28 27 25 24 24 23 22 21 20 20 19 19 19 18 18 18 18 18 17 17 17 17 17 17 17 17
27 27 26 27 28 28 29 30 30 30 30 29 29 30 30 30 30 29 27 26 24 23 23 22 21 21 20 20 19 19 19 18 18 18 18 18 17 17 17 17 17 17 17 16
27 27 27 28 29 29 28 29 29 30 29 29 29 30 31 30 30 28 27 25 24 23 22 22 21 21 20 19 19 19 18 18 18 17 17 17 17 17 17 17 16 16 16 16
26 27 27 28 29 29 29 29 29 29 30 30 30 30 31 31 30 27 26 25 24 23 22 21 21 20 20 19 19 19 18 18 18 17 17 17 17 16 16 16 16 16 16 16
25 26 27 27 28 28 28 29 29 29 29 30 30 30 31 29 27 26 25 24 24 23 22 21 21 20 20 19 19 18 18 18 17 17 17 17 16 16 16 16 16 16 16 16
25 25 26 27 28 27 27 28 29 29 29 30 30 30 29 28 27 25 24 24 23 22 22 21 20 20 20 19 19 18 18 17 17 17 17 16 16 16 16 16 16 15 15 15
24 24 26 27 26 25 28 29 29 29 29 29 29 29 28 27 25 23 23 22 22 21 21 20 20 19 19 19 18 18 18 17 17 17 16 16 16 16 15 15 15 15 15 15
23 24 26 26 26 27 27 27 28 28 28 28 28 28 26 25 24 23 21 21 21 20 19 19 19 19 19 18 18 18 17 17 17 16 16 16 15 15 15 15 15 15 15 14
23 23 25 25 26 26 27 27 25 27 27 27 26 26 25 25 27 25 20 19 19 19 18 18 18 18 18 18 18 17 17 17 16 16 15 15 15 15 15 15 15 14 14 14
23 23 24 25 25 27 26 25 25 26 26 24 24 24 24 24 24 21 19 18 18 17 17 17 17 17 17 17 17 17 17 16 16 15 15 15 15 15 15 14 14 14 14 13
24 24 24 25 25 25 23 25 25 23 21 21 22 22 22 21 20 19 18 17 17 17 17 17 17 17 17 17 17 16 16 16 15 15 15 14 14 14 14 14 13 13 13 13
23 23 25 24 24 22 21 21 20 19 20 20 20 20 20 19 18 18 17 17 16 16 16 16 16 16 16 16 16 16 15 15 15 14 14 14 14 13 13 13 13 12 12 12
21 20 22 22 23 21 20 19 19 19 19 19 19 19 19 18 17 17 16 16 16 15 15 15 15 15 15 15 15 15 15 14 14 14 14 13 13 12 12 12 12 12 11 11
21 20 21 21 21 20 19 18 18 18 18 18 18 18 18 17 17 16 15 15 15 15 15 15 15 14 14 14 14 14 14 14 13 13 13 12 12 12 12 11 11 11 11 11
20 20 21 22 20 21 19 17 17 17 17 17 17 17 17 16 16 15 15 14 14 14 14 14 14 14 14 14 14 14 13 13 13 12 12 12 11 11 11 10 10 10 10 10
Wind_Speed
7 9 10 7 6 3 3 4 4 2 1 3 3 3 2 4 6 7 8 10 11 11 11 11 11 11 11 11 11 12 12 12 10 9 9 8 8 8 7 8 8 8 8 8
8 11 7 4 4 5 6 7 5 3 1 3 3 3 3 4 5 5 7 9 10 10 10 11 11 11 11 11 11 12 12 12 12 9 8 6 6 6 6 6 7 9 9 9
11 4 7 8 8 8 8 7 4 2 2 4 5 6 5 5 5 6 7 8 9 10 11 11 11 11 11 11 11 11 12 11 11 10 7 5 4 4 5 6 7 9 10 10
10 6 8 10 10 9 8 4 4 4 6 4 4 5 4 4 6 7 8 9 9 10 10 10 11 11 11 10 10 10 10 10 10 9 9 9 7 7 7 6 6 7 9 9
10 10 11 11 10 9 3 3 4 5 6 7 6 7 2 5 5 6 7 8 9 9 10 11 11 10 9 9 9 9 9 9 9 9 9 8 8 6 5 5 6 6 7 8
6 7 9 9 7 8 5 6 4 6 8 9 5 7 4 2 2 1 4 6 8 9 10 10 10 10 9 9 8 8 8 8 8 9 9 9 8 7 6 6 6 6 5 5
10 10 8 8 10 10 10 10 7 8 8 7 3 6 3 1 1 2 2 5 8 10 10 11 11 11 10 9 9 8 8 8 8 8 8 8 8 8 8 7 7 7 6 6
13 13 14 12 13 11 15 14 9 7 7 5 6 6 2 1 1 1 2 5 9 11 11 11 11 11 10 10 9 9 8 8 8 7 7 7 7 6 5 7 6 7 6 6
11 10 10 11 11 10 13 14 12 8 6 7 5 4 4 3 3 3 4 7 10 11 11 11 11 10 10 10 10 9 8 7 7 7 6 6 6 6 5 5 6 6 5 5
7 8 10 11 9 8 9 11 8 10 7 9 6 7 4 4 3 4 6 8 10 11 11 11 11 10 10 10 9 9 8 7 6 6 5 5 4 4 4 4 4 4 4 5
10 8 9 11 13 15 11 12 10 11 9 8 6 3 2 2 2 4 6 8 9 11 11 11 11 11 11 10 9 9 8 7 6 6 5 4 4 3 3 3 3 3 3 4
13 9 10 12 7 6 15 15 14 11 9 9 9 3 5 2 2 4 6 8 9 10 11 11 12 11 10 10 9 8 8 7 6 6 5 5 4 3 3 3 2 2 3 3
12 9 11 10 10 10 12 14 15 15 11 11 11 6 6 3 3 5 6 8 9 10 11 11 11 11 10 9 8 8 8 7 7 6 6 5 4 3 2 2 2 2 2 3
9 10 13 13 10 15 16 15 15 15 12 13 13 10 5 5 5 6 7 8 10 11 12 12 11 10 10 9 8 8 7 7 7 7 6 5 4 3 3 2 2 1 2 2
8 12 13 12 6 9 12 15 17 18 16 14 11 12 9 6 5 6 8 9 10 11 12 12 11 11 10 9 9 8 7 6 6 6 6 5 4 3 3 2 2 2 1 1
7 9 11 13 11 11 12 13 14 16 15 15 12 10 4 2 4 6 8 10 11 12 12 12 11 11 10 10 9 8 7 7 6 5 5 5 4 4 3 3 3 2 2 1
8 8 10 12 11 11 15 14 13 13 13 13 13 7 2 3 5 6 8 9 10 11 11 11 11 11 10 10 9 9 8 7 7 6 5 5 4 4 3 3 3 3 3 3
8 9 8 9 10 14 8 5 10 12 11 10 7 3 2 2 3 4 6 8 9 9 10 10 10 10 10 9 9 9 9 8 7 6 5 4 4 4 4 4 4 4 3 3
7 8 8 10 13 11 6 5 6 9 9 7 7 4 2 3 5 4 4 6 8 8 9 9 9 10 10 10 10 9 9 8 7 6 5 5 4 4 4 5 5 4 4 4
7 8 9 10 12 12 7 5 3 6 8 2 3 4 4 5 6 3 6 6 7 8 8 9 10 10 10 10 10 10 9 8 7 6 5 5 5 5 5 5 5 5 5 5
11 9 12 12 12 8 4 3 5 9 3 2 0 2 5 4 1 6 7 7 8 9 10 10 11 10 10 10 10 9 9 8 7 7 6 6 6 6 6 6 5 6 6 6
10 10 11 11 13 8 3 3 4 2 5 3 1 1 2 4 6 8 9 9 9 10 10 11 10 10 9 9 10 10 9 8 7 8 7 7 6 6 6 7 6 6 6 6
6 4 5 5 3 3 2 1 3 3 3 3 1 1 4 6 8 9 9 9 9 10 10 10 11 11 9 8 9 9 9 8 8 8 8 7 7 7 6 6 6 5 5 5
4 2 3 3 2 1 1 2 2 3 2 1 0 3 6 7 9 9 9 9 9 9 10 10 11 11 9 8 9 9 9 8 9 9 7 7 7 7 7 6 6 6 5 5
3 4 5 6 3 2 2 3 3 3 2 2 3 5 6 9 10 9 9 9 8 9 9 9 10 10 10 9 9 9 8 9 9 9 8 8 8 8 9 9 8 7 7 5
6 6 7 5 2 2 1 3 3 3 3 4 5 6 7 9 10 10 9 9 9 9 9 9 10 10 10 10 9 8 8 8 9 8 8 7 7 7 8 9 10 16 13 16
Wind_Direction
192 215 214 206 226 255 233 234 210 144 27 267 244 240 183 174 192 192 188 185 187 189 183 183 186 188 187 189 192 196 197 194 193 194 198 203 208 209 210 211 207 211 218 217
197 217 208 183 197 220 224 226 210 170 98 272 251 238 193 189 203 205 198 190 187 181 177 180 184 185 190 191 192 194 198 196 198 198 200 208 213 214 212 213 206 214 216 217
213 170 175 190 195 209 220 233 229 229 239 219 253 221 188 181 196 200 204 199 192 186 182 182 184 186 191 193 193 194 196 196 199 199 197 196 201 218 214 212 211 214 215 218
219 174 186 201 204 214 212 216 236 238 248 224 255 264 177 186 203 204 203 200 196 189 184 180 181 184 190 191 190 194 195 196 195 195 199 200 208 214 218 219 215 214 215 219
201 194 198 209 207 213 205 168 215 236 248 256 228 270 206 168 214 203 198 198 194 186 179 178 179 179 181 184 185 187 189 191 192 196 202 210 220 226 223 217 216 219 217 221
194 191 212 216 199 200 170 177 192 229 241 244 240 264 259 194 237 219 180 187 186 181 175 173 172 169 171 176 179 179 182 188 190 196 204 212 219 222 218 218 216 219 217 220
199 201 200 203 188 189 203 209 212 217 223 235 174 251 267 33 323 292 226 182 176 174 170 168 166 167 169 172 173 173 178 185 188 196 206 214 221 224 222 223 220 221 217 216
199 201 197 200 208 197 209 219 230 239 234 210 187 243 242 92 296 270 202 170 165 166 166 166 165 165 167 166 168 171 178 182 184 193 204 212 220 225 225 226 223 220 221 216
205 201 180 198 210 218 204 223 241 248 255 253 227 238 249 195 190 165 153 155 159 161 163 164 162 163 161 162 165 169 172 178 183 188 191 200 211 220 224 222 222 220 217 214
207 196 179 179 190 216 236 216 216 233 235 243 231 239 241 179 160 153 158 161 157 158 161 159 159 159 158 158 158 163 168 172 174 179 185 185 191 202 214 212 206 212 215 218
214 204 176 184 203 196 195 206 217 228 238 247 242 222 139 174 161 168 164 160 158 161 161 159 158 156 153 152 154 158 160 162 164 169 169 168 169 179 185 191 199 203 210 211
209 217 205 198 188 230 210 212 209 216 221 240 263 236 121 167 185 168 162 155 154 157 158 157 155 153 153 153 154 157 158 158 158 157 158 158 160 165 172 175 190 200 207 215
189 207 203 199 201 205 219 220 221 228 231 231 242 234 134 172 190 174 165 159 158 158 157 156 157 157 156 155 155 155 156 154 153 151 151 148 155 156 162 167 182 194 201 212
198 212 222 220 212 196 207 211 218 223 227 230 238 254 207 210 202 182 169 167 166 163 162 162 160 159 157 155 155 156 155 152 151 149 149 148 150 152 161 171 171 177 194 205
204 216 225 243 234 211 210 211 211 222 235 243 241 244 253 246 219 189 175 170 169 168 168 166 163 157 158 156 156 155 152 150 150 151 149 147 147 148 151 144 139 144 165 187
208 224 218 226 225 227 227 221 217 224 234 241 249 249 262 234 180 175 176 176 176 173 171 166 161 158 159 157 157 154 152 151 151 151 147 145 146 145 139 132 126 125 126 118
195 209 213 217 210 216 223 219 216 218 224 231 235 240 216 206 192 185 181 181 178 173 169 166 163 161 159 159 157 156 151 147 146 145 141 141 143 137 132 130 122 114 107 99
204 212 216 215 197 221 216 205 223 225 227 232 245 255 237 224 182 172 180 179 172 167 164 163 161 158 155 151 148 145 141 141 143 141 138 138 132 123 119 113 105 101 98 95
212 211 219 218 214 216 188 188 209 217 219 225 234 230 202 158 156 145 150 162 165 160 155 154 156 151 145 143 140 136 135 136 134 131 129 126 122 116 110 103 97 94 95 92
189 216 224 220 227 221 191 160 196 224 214 197 228 216 192 190 217 164 132 141 145 141 140 142 140 138 137 137 138 136 133 130 128 124 120 117 116 116 110 103 100 96 95 91
186 202 219 221 225 220 100 131 187 214 205 56 276 207 196 205 0 111 123 127 130 130 132 134 133 130 129 131 133 131 126 122 119 119 116 110 110 109 106 99 96 98 97 92
203 203 210 220 229 216 89 180 211 358 7 5 35 158 158 120 110 119 119 122 125 127 129 131 128 122 122 128 129 124 119 115 113 112 108 104 101 101 103 101 95 95 99 99
224 251 229 230 236 69 88 26 4 343 331 336 356 114 139 135 128 122 120 122 123 124 125 127 126 120 117 119 124 123 119 118 115 112 108 105 101 95 97 99 98 95 90 92
192 234 242 236 193 104 57 25 1 345 325 319 151 142 145 136 130 125 123 122 122 122 125 126 125 120 113 111 111 113 116 118 117 114 110 106 103 98 89 80 77 79 78 86
209 205 222 231 222 200 118 46 28 30 47 91 113 127 133 133 130 126 122 119 121 124 124 124 123 120 115 111 108 110 114 118 117 114 110 106 101 97 88 75 60 67 58 55
217 225 233 234 187 237 81 32 24 53 78 102 116 118 120 128 128 125 122 122 124 122 122 121 121 120 118 115 111 108 112 120 121 117 113 111 110 109 109 103 86 61 64 60
Height
1520 1517 1514 1512 1513 1512 1514 1515 1516 1515 1514 1514 1513 1513 1513 1517 1519 1521 1525 1528 1532 1535 1538 1540 1542 1544 1546 1548 1549 1551 1553 1555 1557 1559 1561 1563 1565 1567 1569 1570 1572 1573 1575 1577
1519 1515 1513 1515 1517 1517 1516 1517 1516 1515 1515 1514 1513 1512 1512 1516 1518 1520 1523 1526 1530 1533 1536 1538 1540 1542 1544 1545 1547 1549 1551 1553 1555 1557 1559 1561 1563 1565 1567 1568 1569 1571 1573 1574
1512 1512 1515 1517 1518 1519 1517 1516 1516 1517 1515 1512 1513 1513 1511 1514 1517 1520 1522 1524 1527 1530 1534 1536 1538 1540 1541 1543 1545 1547 1549 1551 1553 1555 1557 1559 1560 1562 1564 1565 1567 1568 1570 1572
1511 1514 1517 1516 1516 1517 1518 1515 1517 1518 1517 1513 1515 1518 1510 1509 1513 1516 1519 1521 1524 1528 1531 1534 1536 1537 1539 1541 1543 1545 1547 1549 1550 1552 1554 1556 1558 1559 1561 1563 1564 1566 1567 1569
1510 1512 1515 1516 1513 1515 1514 1515 1516 1516 1516 1516 1513 1518 1508 1508 1510 1510 1514 1518 1522 1526 1529 1531 1534 1535 1538 1540 1541 1543 1545 1546 1548 1550 1552 1554 1555 1557 1559 1560 1561 1562 1564 1566
1507 1511 1511 1510 1511 1514 1516 1517 1517 1515 1513 1526 1517 1522 1515 1503 1507 1507 1511 1516 1520 1523 1527 1530 1532 1534 1536 1539 1540 1542 1543 1545 1546 1548 1550 1551 1553 1554 1556 1557 1558 1560 1561 1563
1512 1510 1510 1510 1512 1514 1515 1518 1527 1529 1528 1523 1515 1520 1513 1503 1505 1507 1510 1514 1518 1521 1525 1528 1531 1533 1535 1537 1539 1540 1541 1543 1545 1546 1548 1549 1551 1552 1553 1554 1556 1557 1558 1560
1511 1511 1506 1507 1507 1509 1511 1510 1523 1532 1527 1518 1519 1518 1505 1502 1506 1508 1510 1512 1516 1520 1523 1526 1529 1531 1534 1536 1538 1539 1540 1542 1544 1545 1546 1548 1549 1550 1551 1552 1553 1554 1556 1557
1501 1503 1500 1503 1504 1504 1509 1508 1499 1509 1516 1520 1513 1510 1502 1501 1504 1507 1509 1512 1515 1518 1522 1525 1528 1531 1533 1535 1537 1539 1540 1541 1543 1544 1545 1546 1547 1548 1549 1550 1550 1552 1553 1555
1494 1502 1500 1502 1505 1506 1502 1500 1508 1512 1527 1529 1519 1515 1507 1502 1502 1504 1508 1510 1514 1518 1521 1525 1528 1530 1532 1535 1536 1538 1539 1541 1542 1543 1545 1546 1546 1547 1547 1548 1549 1550 1551 1553
1491 1500 1503 1502 1504 1503 1508 1507 1505 1506 1507 1521 1524 1513 1494 1498 1500 1503 1506 1510 1513 1517 1520 1524 1527 1529 1532 1534 1536 1537 1539 1540 1541 1542 1544 1544 1545 1546 1546 1547 1548 1548 1550 1551
1492 1495 1499 1498 1495 1494 1496 1498 1503 1513 1517 1513 1513 1508 1493 1496 1499 1502 1506 1510 1513 1517 1520 1523 1526 1529 1531 1533 1535 1537 1538 1539 1541 1542 1542 1543 1544 1545 1545 1546 1547 1547 1548 1549
1492 1497 1507 1507 1505 1501 1499 1495 1495 1497 1502 1509 1514 1507 1494 1497 1499 1502 1506 1510 1513 1516 1520 1523 1526 1528 1530 1533 1535 1536 1538 1539 1540 1541 1542 1542 1544 1544 1545 1545 1546 1547 1547 1548
1492 1493 1496 1498 1492 1490 1497 1496 1496 1497 1505 1506 1505 1498 1492 1494 1497 1501 1505 1509 1512 1516 1518 1522 1524 1527 1530 1532 1534 1536 1537 1539 1540 1540 1541 1542 1543 1544 1544 1545 1545 1545 1546 1546
1491 1492 1490 1485 1482 1484 1488 1491 1494 1496 1494 1497 1495 1494 1490 1491 1495 1500 1504 1508 1511 1514 1517 1520 1523 1526 1528 1531 1533 1535 1536 1538 1539 1540 1540 1541 1542 1543 1543 1544 1544 1544 1545 1545
1491 1490 1490 1491 1486 1487 1488 1487 1489 1491 1490 1491 1490 1490 1488 1492 1496 1500 1503 1506 1509 1513 1516 1519 1522 1525 1527 1529 1531 1533 1535 1537 1538 1539 1540 1540 1541 1542 1542 1543 1543 1543 1544 1544
1488 1491 1493 1490 1486 1490 1494 1486 1486 1488 1486 1487 1490 1488 1490 1493 1496 1499 1502 1504 1507 1511 1514 1517 1520 1523 1526 1528 1530 1532 1534 1536 1537 1538 1539 1540 1540 1541 1541 1542 1542 1542 1542 1542
1489 1491 1488 1485 1493 1504 1485 1479 1481 1483 1483 1484 1485 1487 1490 1493 1497 1500 1501 1504 1506 1510 1513 1516 1519 1521 1524 1527 1529 1531 1533 1534 1536 1538 1538 1539 1540 1540 1541 1541 1541 1541 1541 1541
1489 1490 1486 1486 1491 1489 1484 1482 1482 1484 1484 1484 1486 1489 1492 1494 1497 1499 1501 1503 1506 1509 1511 1514 1517 1520 1523 1525 1528 1530 1532 1533 1535 1537 1538 1538 1539 1540 1540 1540 1540 1540 1541 1540
1490 1489 1486 1486 1491 1493 1482 1481 1485 1486 1487 1486 1487 1489 1492 1493 1491 1496 1501 1503 1505 1508 1510 1513 1516 1519 1521 1524 1527 1529 1531 1532 1534 1536 1537 1538 1539 1539 1540 1540 1540 1540 1540 1540
1487 1489 1486 1486 1487 1478 1480 1483 1486 1492 1489 1489 1489 1491 1492 1493 1493 1498 1500 1503 1505 1507 1510 1512 1515 1518 1521 1523 1526 1528 1530 1532 1534 1535 1536 1537 1538 1539 1539 1539 1539 1539 1539 1539
1480 1482 1486 1484 1487 1485 1485 1484 1485 1488 1491 1490 1491 1492 1493 1495 1497 1499 1501 1503 1505 1508 1510 1513 1515 1518 1520 1523 1525 1527 1529 1531 1532 1534 1535 1536 1537 1538 1539 1539 1539 1539 1539 1539
1480 1480 1476 1480 1483 1487 1488 1489 1491 1492 1492 1492 1492 1493 1494 1496 1498 1500 1502 1504 1506 1509 1511 1514 1516 1518 1520 1523 1525 1527 1529 1530 1532 1533 1535 1536 1537 1538 1539 1539 1539 1539 1540 1540
1483 1487 1484 1485 1483 1487 1489 1491 1491 1492 1492 1492 1493 1494 1495 1497 1499 1501 1503 1505 1507 1509 1512 1514 1516 1518 1520 1523 1525 1527 1528 1530 1531 1533 1534 1536 1537 1538 1538 1538 1539 1539 1540 1540
1482 1485 1483 1484 1486 1488 1490 1492 1492 1492 1492 1493 1493 1494 1496 1497 1499 1501 1504 1506 1508 1510 1512 1514 1516 1518 1520 1523 1525 1527 1528 1530 1531 1533 1534 1535 1537 1537 1538 1538 1539 1540 1540 1540
1484 1485 1484 1482 1487 1488 1491 1492 1492 1492 1493 1493 1494 1496 1497 1498 1500 1502 1504 1506 1508 1510 1512 1514 1517 1519 1521 1523 1524 1526 1528 1530 1531 1533 1534 1535 1537 1538 1539 1540 1540 1541 1541 1542